Regional Weather Roundup
Issued by NWS

Home | Current Version | Previous Version | Graphics & Text | Print | Product List | Glossary On
Versions: 1 2 3 4 5 6 7 8 9 10 11 12 13 14 15 16 17 18 19 20 21 22 23 24 25 26 27 28 29 30 31 32 33 34 35 36 37 38 39 40 41 42 43 44 45 46 47 48 49 50
000
ASUS43 KIND 030009
RWRIN

WEATHER ROUNDUP FOR INDIANA
NATIONAL WEATHER SERVICE INDIANAPOLIS IN
800 PM EDT SAT MAY 02 2015

NOTE: "FAIR" INDICATES FEW OR NO CLOUDS BELOW 12,000 FEET WITH NO
SIGNIFICANT WEATHER AND/OR OBSTRUCTIONS TO VISIBILITY.

* - STATION DOES NOT REPORT WEATHER SUCH AS PRECIPITATION OR FOG.

+ - STATION NOT QUALITY CONTROLLED BY THE NATIONAL WEATHER SERVICE.
    USE DATA WITH CAUTION...ESPECIALLY DEWPOINT AND RELATIVE
    HUMIDITY OBSERVATIONS.

INZ001>003-010>013-019-020-030100-
NORTHWEST INDIANA

CITY           SKY/WX    TMP DP  RH WIND       PRES   REMARKS
GARY /AIRPORT/ MOCLDY    77 N/A N/A SW8       29.96
KNOX *+        CLEAR     72 -15   3 SW8       29.98S
LA PORTE +     CLEAR     73  38  28 W5        29.99S
6HR MIN TEMP:  73; 6HR MAX TEMP:  77;

MICHIGAN CITY+ PTCLDY    72  27  18 CALM      29.98S
MONTICELLO +   CLEAR     69  45  41 S6        30.00R
6HR MIN TEMP:  69; 6HR MAX TEMP:  74;

VALPARAISO     PTCLDY    73  35  25 SW10      29.98S
6HR MIN TEMP:  72; 6HR MAX TEMP:  76;


$$

LMZ046-743>745-030100-
SOUTHERN LAKE MICHIGAN

STATION/POSITION TIME  TEMP    WIND        PRES    WAVE
                       AIR SEA DIR/SP/G            HT
                 (UTC) (F)     (DEG/KT/KT) (MB)    (FT)
BURNS HARBOR     0000   63      90/  6/  8 1015.6R
MICHIGAN CITY    0000   66      40/ 11/ 11   N/A
5NW MICH CITY    0000   56 51   90/  6/  8   N/A     0

$$

INZ004-005-014>016-021>024-030100-
NORTH CENTRAL INDIANA

CITY           SKY/WX    TMP DP  RH WIND       PRES   REMARKS
GOSHEN         CLEAR     69  38  32 SW7       29.99S
6HR MIN TEMP:  69; 6HR MAX TEMP:  73;

LOGANSPORT +   CLEAR     66  34  30 SW6       30.01F
PERU/GRISSOM   CLEAR     66  46  47 SW7       30.00S
6HR MIN TEMP:  66; 6HR MAX TEMP:  74;

ROCHESTER +    CLEAR     72  37  28 S6        30.01S
SOUTH BEND     CLEAR     69  43  38 N6        29.99S
6HR MIN TEMP:  69; 6HR MAX TEMP:  76;

WARSAW +       CLEAR     70  37  30 SW6       30.00S

$$

INZ006>009-017-018-025>027-030100-
NORTHEAST INDIANA

CITY           SKY/WX    TMP DP  RH WIND       PRES   REMARKS
ANGOLA *+      CLEAR     73  39  29 VRB3      30.00S
AUBURN +       CLEAR     70  36  28 SW5       30.02S
FORT WAYNE     PTCLDY    71  42  35 W7        30.02S
6HR MIN TEMP:  71; 6HR MAX TEMP:  75;

HUNTINGTON +   CLEAR     67  42  39 W6        30.01S
6HR MIN TEMP:  67; 6HR MAX TEMP:  73;


$$

INZ028-029-035-036-043>045-051>053-030100-
WEST CENTRAL INDIANA

CITY           SKY/WX    TMP DP  RH WIND       PRES   REMARKS
CRAWFORDSVL +  PTCLDY    67  34  28 SW9       30.03S
6HR MIN TEMP:  67; 6HR MAX TEMP:  73;

GREENCASTLE +  PTCLDY    68  36  30 SW3       30.04S
LAFAYETTE      PTCLDY    70  39  32 SW6       30.00S
6HR MIN TEMP:  70; 6HR MAX TEMP:  74;

TERRE HAUTE    MOCLDY    69  43  38 SW7       30.03S
6HR MIN TEMP:  69; 6HR MAX TEMP:  75;


$$

INZ030>032-037>040-046>048-054>057-064-065-030100-
CENTRAL INDIANA

CITY           SKY/WX    TMP DP  RH WIND       PRES   REMARKS
CP ATTERBURY + CLEAR     70  41  35 W6        30.04R
COLUMBUS       PTCLDY    66  39  37 SW7       30.04
FRANKFORT +    PTCLDY    71  44  37 S8        30.04R
6HR MIN TEMP:  70; 6HR MAX TEMP:  76;

GREENWOOD *+   CLEAR     72  39  30 W8        30.04R
INDIANAPOLIS   MOCLDY    69  42  37 SW10      30.02S
6HR MIN TEMP:  68; 6HR MAX TEMP:  75;

-EAGLE CREEK   PTCLDY    70  41  34 SW6       30.02S
6HR MIN TEMP:  70; 6HR MAX TEMP:  74;

MARION +       CLEAR     70  38  30 SW8       30.03R
MT COMFORT *+  CLEAR     70  23  17 SW6       30.04R
SHELBYVILLE    MOCLDY    73  45  36 SW7       30.02S
6HR MIN TEMP:  72; 6HR MAX TEMP:  76;

ZIONSVILLE +   PTCLDY    69  40  34 SW7       30.04R
6HR MIN TEMP:  69; 6HR MAX TEMP:  74;


$$

INZ033-034-041-042-049-050-058-059-030100-
EAST CENTRAL INDIANA

CITY           SKY/WX    TMP DP  RH WIND       PRES   REMARKS
MUNCIE         PTCLDY    70  42  36 W6        30.03R
6HR MIN TEMP:  70; 6HR MAX TEMP:  74;


$$

INZ060-061-067>069-081>083-085>088-030100-
SOUTHWEST INDIANA

CITY           SKY/WX    TMP DP  RH WIND       PRES   REMARKS
EVANSVILLE     PTCLDY    70  46  42 CALM      30.05S
6HR MIN TEMP:  70; 6HR MAX TEMP:  74;

HUNTINGBURG *+ MOCLDY    70  46  43 SW7       30.06S
6HR MIN TEMP:  70; 6HR MAX TEMP:  73;

WASHINGTON +   MOCLDY    67  42  41 SW7       30.04S
6HR MIN TEMP:  67; 6HR MAX TEMP:  74;


$$

INZ062-063-066-070>080-084-089>092-030100-
SOUTH CENTRAL AND SOUTHEAST INDIANA

CITY           SKY/WX    TMP DP  RH WIND       PRES   REMARKS
BLOOMINGTON    PTCLDY    70  41  34 W7        30.05R
6HR MIN TEMP:  70; 6HR MAX TEMP:  75;

MADISON *+     PTCLDY    70  41  35 CALM      30.07R
SEYMOUR +      CLEAR     68  46  45 SW6       30.04R

$$




USA.gov is the U.S. government's official web portal to all federal, state and local government web resources and services.